Weather in Fedorkovo

Russia / Yaroslavl Oblast     58°22′14″N   39°19′39″E
temp.,
°C
wind,
m/s
gust,
m/s
humid.,
%
clouds,
%
prec.,
mm/h
press.,
hPa
HPBL,
m
8 may, sat
sat800:00+4s378570 0.0 1012141
03:00+4sse398592 0.0 1012183
06:00+6sse41372100 0.0 1011369
09:00+10sse51262100 0.0 10101289
12:00+12sse71464100 0.1 10091812
15:00+8sse51287100 1.8 10081453
18:00+7sse51393100 4.9 10061345
21:00+7se51296100 12.6 10041281
9 may, sun
sun900:00+7se2798100 5.1 1001473
03:00+7wnw2599100 7.8 1001250
06:00+5nw51197100 3.7 1002620
09:00+3nw61397100 5.1 1006676
12:00+3nw61397100 4.4 1010787
15:00+7nw6118093 5.4 10131286
18:00+8nnw411664 0.0 10151545
21:00+4wnw22835 0.0 101916
10 may, mon
mon1000:00+2wnw25871 0.0 102277
03:00+1nw26900 0.0 1025102
06:00+3wnw12755 0.0 102775
09:00+9wsw224828 0.0 1028621
12:00+13sw343915 0.0 10281563
15:00+14sw464267 0.0 10281899
18:00+10sw2669100 0.0 1028167
21:00+9ssw287588 0.0 1029189
11 may, tue
tue1100:00+6ssw268344 0.0 1030104
03:00+6ssw258840 0.0 103192
06:00+8ssw25825 0.0 1031125
09:00+14ssw34625 0.0 1031514
12:00+18ssw335351 0.0 10311155
15:00+20ssw234960 0.0 10301462
18:00+18ssw1263100 0.0 1029193
21:00+12sse228689 0.0 103021
12 may, wed
wed1200:00+10s22890 0.0 103139
03:00+9se11900 0.0 103110
06:00+11se25820 0.0 1031143
09:00+16se35561 0.0 1030595
12:00+20se45471 0.0 10301149
15:00+20se454617 0.0 10291349
18:00+19sse35570 0.0 1028712
21:00+13ese22790 0.0 102819